Location: Contre
(49.7477°N, 2.0963°E)
Time: 10:27:03
(UTC+00:00)

Cosmos 2058 Rocket - Visible Passes

Search period start: 28 September 2023 00:00
Search period end: 08 October 2023 00:00
Orbit: 608 x 637 km, 82.5° (Epoch: 27 September)

Date Brightness Start Highest point End Pass type
(mag) Time Alt. Az. Time Alt. Az. Time Alt. Az.
28 Sep 5.7 01:44:51 16° N 01:44:51 16° N 01:45:48 10° N visible
29 Sep 5.7 02:03:28 15° N 02:03:28 15° N 02:04:17 10° N visible
30 Sep 5.7 02:22:04 13° NNW 02:22:04 13° NNW 02:22:34 10° N visible
01 Oct 6.3 01:03:26 10° NNE 01:03:26 10° NNE 01:03:26 10° NNE visible
02 Oct 6.2 01:22:00 10° N 01:22:00 10° N 01:22:03 10° N visible
